Location: Byszew
(52.1813°N, 19.2693°E)
Time: 19:10:58
(UTC+00:00)

Cosmos 2278 Rocket - Pass Details

Date: 03 March 2021
Orbit: 841 x 845 km, 71.0° (Epoch: 17 April)

Event Time Altitude Azimuth Distance (km) Brightness Sun altitude
Rises 18:39:19 0° 329° (NNW) 3,417 6.1 -21.0°
Reaches altitude 10° 18:41:49 10° 334° (NNW) 2,478 5.2 -21.3°
Maximum altitude 18:47:27 60° 54° (NE) 968 2.3 -22.2°
Enters shadow 18:48:37 49° 100° (E) 1,078 2.3 -22.3°
